Miscellaneous Local Product
Issued by NWS Hastings, NE

Home | Current Version | Previous Version | Graphics & Text | Print | Product List | Glossary On
Versions: 1 2 3 4 5 6 7 8 9 10 11 12 13 14 15 16 17 18 19 20 21 22 23 24 25 26 27 28 29 30 31 32 33 34 35 36 37 38 39 40 41 42 43 44 45 46 47 48 49 50
000
AXUS43 KGID 210102
MISGRI

GID CWA HOURLY WEATHER ROUNDUP
NATIONAL WEATHER SERVICE HASTINGS NE
700 PM CST MON FEB 20 2017

NOTE: "FAIR" INDICATES FEW OR NO CLOUDS BELOW 12,000 FEET WITH NO
SIGNIFICANT WEATHER AND/OR OBSTRUCTIONS TO VISIBILITY.

...SOUTH CENTRAL NEBRASKA...

CITY           SKY/WX    TMP DP  RH WIND       PRES   REMARKS
GRAND ISLAND   CLEAR     48  36  63 N3        29.96R
HASTINGS       CLEAR     50  34  54 N5        29.97R
KEARNEY        CLEAR     54  30  40 NW3       29.96R
ORD            CLEAR     48  30  49 NW5       29.92R
YORK           CLEAR     48  39  71 N7        29.94R
AURORA         CLEAR     45  37  71 NW5       29.96R
LEXINGTON      CLEAR     48  29  47 NW6       29.97R
HOLDREGE       CLEAR     52  31  46 CALM      29.97R
HEBRON         CLEAR     56  41  57 NW10      29.92R

...NEBRASKA PANHANDLE...

CITY           SKY/WX    TMP DP  RH WIND       PRES   REMARKS
CHADRON        CLEAR     53  28  38 W9        29.88R
ALLIANCE       CLEAR     48  24  39 W6        29.91R
SCOTTSBLUFF    CLEAR     58  22  24 W15G25    29.94R
SIDNEY         CLEAR     48  20  32 W7        29.98R

...WESTERN AND NORTH CENTRAL NEBRASKA...

CITY           SKY/WX    TMP DP  RH WIND       PRES   REMARKS
VALENTINE      CLEAR     48  24  39 SW7       29.88R
AINSWORTH      CLEAR     48  27  43 SW3       29.90R
ONEILL         CLEAR     52  33  47 W6        29.91R
BROKEN BOW     CLEAR     47  27  45 CALM      29.94R
IMPERIAL       CLEAR     49  18  29 CALM      29.97R
NORTH PLATTE   CLEAR     45  25  45 CALM      29.95R
MCCOOK         CLEAR     53  25  33 NW6       29.97R

...EASTERN NEBRASKA...

CITY           SKY/WX    TMP DP  RH WIND       PRES   REMARKS
NORFOLK        CLEAR     44  36  73 W5        29.91R
SO SIOUX CITY  CLEAR     51  43  74 NW10      29.88R
TEKAMAH        CLEAR     47  43  86 W6        29.88R
COLUMBUS       CLEAR     48  37  66 NW6       29.94R
ALBION         CLEAR     50  36  58 CALM      29.92R
OMAHA EPPLEY   PTCLDY    51  43  74 NW6       29.88R
MILLARD        CLEAR     57  46  65 NW5       29.88R
LINCOLN        CLEAR     51  41  68 N5        29.91R
NEBRASKA CITY  MOCLDY    57  50  78 NW8       29.89R
BEATRICE       CLEAR     51  44  76 N6        29.90R
FALLS CITY     MOCLDY    58  53  84 SW8       29.87R

...NORTHERN KANSAS...

CITY           SKY/WX    TMP DP  RH WIND       PRES   REMARKS
GOODLAND       CLEAR     46  12  25 CALM      30.01R
HILL CITY      CLEAR     48  31  51 VRB3      29.98R
NORTON         CLEAR     48  23  37 NW6       29.97R
SMITH CENTER   CLEAR     48  34  57 N6        29.98R
RUSSELL        CLEAR     55  36  48 NW13      29.95R
CONCORDIA      CLEAR     58  42  55 NW13      29.91R
SALINA         CLEAR     57  41  55 NW9       29.90R
TOPEKA         CLOUDY    60  52  74 S5        29.87S



USA.gov is the U.S. government's official web portal to all federal, state and local government web resources and services.